• In Russia
  • List of Countries
  • For 7 days
  • Water Temperature
  • Satellite Maps
  • Weather Map
  • Weather Widgets
  • user-avatar
    Login

    Hourly Weather Mingachevir

    Today, 27 February, Monday

    Time Temperature Precipitation Wind Pressure Humidity
    00:00 +5°C° 0 mm 4 mps 760 mmHg 65%
    01:00 +4°C° 0 mm 4 mps 760 mmHg 64%
    02:00 +4°C° 0 mm 4 mps 760 mmHg 63%
    03:00 +3°C° 0 mm 4 mps 760 mmHg 60%
    04:00 +3°C° 0 mm 4 mps 761 mmHg 61%
    05:00 +2°C° 0 mm 3 mps 761 mmHg 61%
    06:00 +2°C° 0 mm 3 mps 761 mmHg 61%
    07:00 +4°C° 0 mm 2 mps 761 mmHg 59%
    08:00 +5°C° 0 mm 2 mps 761 mmHg 56%
    09:00 +6°C° 0 mm 2 mps 761 mmHg 53%
    10:00 +7°C° 0 mm 2 mps 761 mmHg 51%
    11:00 +7°C° 0 mm 2 mps 760 mmHg 50%
    12:00 +8°C° 0 mm 2 mps 759 mmHg 49%
    13:00 +10°C° 0 mm 1 mps 759 mmHg 48%
    14:00 +10°C° 0 mm 1 mps 758 mmHg 47%
    15:00 +10°C° 0 mm 1 mps 758 mmHg 46%
    16:00 +9°C° 0 mm 1 mps 758 mmHg 50%
    17:00 +8°C° 0 mm 1 mps 758 mmHg 55%
    18:00 +7°C° 0 mm 1 mps 758 mmHg 59%
    19:00 +7°C° 0 mm 1 mps 758 mmHg 61%
    20:00 +6°C° 0 mm 1 mps 758 mmHg 63%
    21:00 +6°C° 0 mm 1 mps 758 mmHg 64%
    22:00 +5°C° 0 mm 1 mps 758 mmHg 66%
    23:00 +5°C° 0 mm 1 mps 758 mmHg 67%

    Tomorrow, 28 February, Tuesday

    Time Temperature Precipitation Wind Pressure Humidity
    00:00 +5°C° 0 mm 1 mps 758 mmHg 68%
    01:00 +5°C° 0 mm 1 mps 757 mmHg 69%
    02:00 +4°C° 0 mm 1 mps 757 mmHg 71%
    03:00 +4°C° 0 mm 1 mps 757 mmHg 72%
    04:00 +4°C° 0 mm 1 mps 757 mmHg 73%
    05:00 +4°C° 0 mm 1 mps 757 mmHg 75%
    06:00 +4°C° 0 mm 1 mps 757 mmHg 76%
    07:00 +6°C° 0 mm 1 mps 758 mmHg 69%
    08:00 +8°C° 0 mm 1 mps 758 mmHg 61%
    09:00 +10°C° 0 mm 1 mps 758 mmHg 54%
    10:00 +11°C° 0 mm 1 mps 758 mmHg 50%
    11:00 +13°C° 0 mm 1 mps 758 mmHg 47%
    12:00 +14°C° 0 mm 1 mps 758 mmHg 44%
    13:00 +15°C° 0 mm 1 mps 758 mmHg 43%
    14:00 +15°C° 0 mm 1 mps 757 mmHg 42%
    15:00 +16°C° 0 mm 1 mps 757 mmHg 42%
    16:00 +14°C° 0 mm 2 mps 758 mmHg 48%
    17:00 +13°C° 0 mm 2 mps 758 mmHg 53%
    18:00 +10°C° 0 mm 2 mps 758 mmHg 59%
    19:00 +9°C° 0 mm 2 mps 759 mmHg 61%
    20:00 +9°C° 0 mm 2 mps 759 mmHg 63%
    21:00 +8°C° 0 mm 2 mps 760 mmHg 66%
    22:00 +8°C° 0 mm 2 mps 760 mmHg 68%
    23:00 +7°C° 0 mm 2 mps 760 mmHg 71%

    Day after tomorrow, 1 March, Wednesday

    Time Temperature Precipitation Wind Pressure Humidity
    00:00 +6°C° 0 mm 2 mps 760 mmHg 73%
    01:00 +7°C° 0 mm 1 mps 760 mmHg 77%
    02:00 +7°C° 0 mm 1 mps 760 mmHg 80%
    03:00 +6°C° 0 mm 1 mps 760 mmHg 83%
    04:00 +6°C° 0 mm 1 mps 760 mmHg 85%
    05:00 +4°C° 0 mm 0 mps 760 mmHg 87%
    06:00 +4°C° 0 mm 0 mps 760 mmHg 89%
    07:00 +6°C° 0 mm 0 mps 760 mmHg 80%
    08:00 +8°C° 0 mm 0 mps 760 mmHg 71%
    09:00 +10°C° 0 mm 0 mps 760 mmHg 62%
    10:00 +12°C° 0 mm 1 mps 759 mmHg 58%
    11:00 +14°C° 0 mm 1 mps 759 mmHg 54%
    12:00 +15°C° 0 mm 1 mps 758 mmHg 50%
    13:00 +16°C° 0 mm 1 mps 758 mmHg 49%
    14:00 +16°C° 0 mm 1 mps 757 mmHg 48%
    15:00 +18°C° 0 mm 1 mps 757 mmHg 47%
    16:00 +15°C° 0 mm 1 mps 757 mmHg 53%
    17:00 +13°C° 0 mm 1 mps 757 mmHg 59%
    18:00 +11°C° 0 mm 1 mps 757 mmHg 66%
    19:00 +10°C° 0 mm 2 mps 757 mmHg 67%
    20:00 +10°C° 0 mm 2 mps 757 mmHg 68%
    21:00 +9°C° 0 mm 2 mps 758 mmHg 69%
    22:00 +9°C° 0 mm 2 mps 757 mmHg 71%
    23:00 +8°C° 0 mm 2 mps 757 mmHg 74%

    2 March, Thursday

    Time Temperature Precipitation Wind Pressure Humidity
    00:00 +8°C° 0 mm 1 mps 757 mmHg 76%
    01:00 +8°C° 0 mm 1 mps 757 mmHg 79%
    02:00 +7°C° 0 mm 1 mps 757 mmHg 81%
    03:00 +6°C° 0 mm 0 mps 756 mmHg 84%
    04:00 +6°C° 0 mm 0 mps 756 mmHg 86%
    05:00 +5°C° 0 mm 0 mps 756 mmHg 87%
    06:00 +5°C° 0 mm 0 mps 756 mmHg 88%
    07:00 +7°C° 0 mm 0 mps 756 mmHg 80%
    08:00 +10°C° 0 mm 1 mps 756 mmHg 71%
    09:00 +12°C° 0 mm 1 mps 756 mmHg 62%
    10:00 +13°C° 0 mm 1 mps 755 mmHg 58%
    11:00 +14°C° 0 mm 2 mps 754 mmHg 55%
    12:00 +15°C° 0 mm 2 mps 754 mmHg 51%
    13:00 +16°C° 0 mm 2 mps 753 mmHg 51%
    14:00 +16°C° 0 mm 2 mps 753 mmHg 50%
    15:00 +16°C° 0 mm 2 mps 752 mmHg 50%
    16:00 +15°C° 0 mm 2 mps 752 mmHg 56%
    17:00 +13°C° 0 mm 2 mps 753 mmHg 61%
    18:00 +12°C° 0 mm 1 mps 753 mmHg 67%
    19:00 +11°C° 0 mm 1 mps 753 mmHg 68%
    20:00 +11°C° 0 mm 1 mps 753 mmHg 69%
    21:00 +10°C° 0 mm 1 mps 753 mmHg 70%
    22:00 +10°C° 0 mm 1 mps 753 mmHg 72%
    23:00 +9°C° 0 mm 1 mps 753 mmHg 74%

    3 March, Friday

    Time Temperature Precipitation Wind Pressure Humidity
    00:00 +9°C° 0 mm 1 mps 753 mmHg 76%
    01:00 +9°C° 0 mm 1 mps 752 mmHg 77%
    02:00 +9°C° 0 mm 1 mps 752 mmHg 78%
    03:00 +8°C° 0 mm 1 mps 752 mmHg 79%
    04:00 +8°C° 0 mm 1 mps 752 mmHg 79%
    05:00 +8°C° 0 mm 1 mps 752 mmHg 79%
    06:00 +8°C° 0 mm 1 mps 752 mmHg 79%
    07:00 +10°C° 0 mm 1 mps 752 mmHg 72%
    08:00 +12°C° 0 mm 1 mps 752 mmHg 65%
    09:00 +13°C° 0 mm 1 mps 752 mmHg 59%
    10:00 +15°C° 0 mm 1 mps 751 mmHg 54%
    11:00 +16°C° 0 mm 1 mps 751 mmHg 50%
    12:00 +18°C° 0 mm 1 mps 750 mmHg 46%
    13:00 +19°C° 0 mm 1 mps 750 mmHg 44%
    14:00 +19°C° 0 mm 1 mps 750 mmHg 43%
    15:00 +20°C° 0 mm 1 mps 750 mmHg 42%
    16:00 +18°C° 0 mm 1 mps 750 mmHg 47%
    17:00 +15°C° 0 mm 1 mps 750 mmHg 53%
    18:00 +13°C° 0 mm 0 mps 751 mmHg 59%
    19:00 +13°C° 0 mm 1 mps 751 mmHg 61%
    20:00 +13°C° 0 mm 1 mps 752 mmHg 63%
    21:00 +13°C° 0 mm 1 mps 752 mmHg 65%
    22:00 +13°C° 0.1 mm 1 mps 752 mmHg 67%
    23:00 +12°C° 0.1 mm 1 mps 752 mmHg 68%

    4 March, Saturday

    Time Temperature Precipitation Wind Pressure Humidity
    00:00 +12°C° 0.1 mm 1 mps 752 mmHg 70%
    01:00 +12°C° 0.1 mm 1 mps 752 mmHg 71%
    02:00 +12°C° 0.1 mm 1 mps 753 mmHg 71%
    03:00 +11°C° 0.1 mm 1 mps 753 mmHg 72%
    04:00 +11°C° 0.1 mm 1 mps 753 mmHg 72%
    05:00 +11°C° 0.1 mm 1 mps 753 mmHg 73%
    06:00 +11°C° 0.1 mm 1 mps 754 mmHg 74%
    07:00 +12°C° 0.1 mm 1 mps 754 mmHg 69%
    08:00 +13°C° 0.1 mm 1 mps 755 mmHg 65%
    09:00 +14°C° 0.1 mm 1 mps 755 mmHg 60%
    10:00 +15°C° 0.1 mm 2 mps 755 mmHg 59%
    11:00 +15°C° 0.1 mm 2 mps 755 mmHg 57%
    12:00 +16°C° 0.1 mm 2 mps 755 mmHg 55%
    13:00 +16°C° 0 mm 2 mps 755 mmHg 54%
    14:00 +16°C° 0 mm 1 mps 755 mmHg 53%
    15:00 +18°C° 0 mm 1 mps 754 mmHg 52%
    16:00 +16°C° 0 mm 1 mps 755 mmHg 57%
    17:00 +14°C° 0 mm 1 mps 755 mmHg 62%
    18:00 +13°C° 0 mm 1 mps 756 mmHg 67%
    19:00 +13°C° 0.1 mm 1 mps 756 mmHg 69%
    20:00 +13°C° 0.1 mm 1 mps 757 mmHg 71%
    21:00 +12°C° 0.1 mm 2 mps 757 mmHg 73%
    22:00 +12°C° 0.1 mm 2 mps 758 mmHg 75%
    23:00 +10°C° 0.1 mm 2 mps 758 mmHg 77%
    Show more